Weather History for Winslow, AZ

Change the Weather History Date:

Wednesday, June 19, 2013

  Actual Average Record
Temperature  
Mean Temperature 74 °F 74 °F  
Max Temperature 96 °F 93 °F 103 °F (1960)
Min Temperature 51 °F 55 °F 39 °F (1979)
Degree Days  
Heating Degree Days 0 0  
Month to date heating degree days 0 8  
Since 1 July heating degree days 4188 4495  
Cooling Degree Days 9 9  
Month to date cooling degree days 221 124  
Year to date cooling degree days 277 191  
Growing Degree Days 21 (Base 50)    
Moisture  
Dew Point 10 °F    
Average Humidity 13    
Maximum Humidity 22    
Minimum Humidity 3    
Precipitation  
Precipitation 0.00 in 0.00 in 0.67 in (1967)
Month to date precipitation T 0.09  
Year to date precipitation 1.79 2.20  
Sea Level Pressure  
Sea Level Pressure 29.71 in    
Wind  
Wind Speed 12 mph (South)    
Max Wind Speed 28 mph    
Max Gust Speed 36 mph    
Visibility 10 miles    
Events      
T = Trace of Precipitation, MM = Missing Value Source: NWS Daily Summary

Daily Weather History Graph

Daily Weather History Graph

Search for Another Location

Airport:

Trip Planner

Search our weather history database for the weather conditions in past years. The results will help you decide how hot, cold, wet, or windy it might be!

Date:

Astronomy

Jun. 19, 2013 Rise Set
Actual Time 5:08 AM MST 7:39 PM MST
Civil Twilight 4:39 AM MST 8:09 PM MST
Nautical Twilight 4:02 AM MST 8:46 PM MST
Astronomical Twilight 3:21 AM MST 9:27 PM MST
Moon 3:42 PM MST (6/19) 1:48 AM MST (6/19)
Length of Visible Light 15h 30m
Length of Day
14h 30m
Waxing Gibbous, 81% of the Moon is Illuminated
Jun 19
Waxing Gibbous
Jun 23
Full
Jun 29
Last Quarter
Jul 8
New
Jul 15
First Quarter

Hourly Weather History & Observations

Time (MST) Temp. Dew Point Humidity Pressure Visibility Wind Dir Wind Speed Gust Speed Precip Events Conditions
12:56 AM 64.0 °F 14.0 °F 14% 29.70 in 10.0 mi ESE 8.1 mph - N/A   Clear
1:56 AM 59.0 °F 15.1 °F 18% 29.71 in 10.0 mi ESE 6.9 mph - N/A   Clear
2:56 AM 60.1 °F 16.0 °F 18% 29.71 in 10.0 mi East 3.5 mph - N/A   Clear
3:56 AM 54.0 °F 15.1 °F 22% 29.73 in 10.0 mi East 5.8 mph - N/A   Clear
4:56 AM 53.1 °F 14.0 °F 21% 29.74 in 10.0 mi ESE 5.8 mph - N/A   Clear
5:56 AM 54.0 °F 12.9 °F 20% 29.75 in 10.0 mi ESE 8.1 mph - N/A   Clear
6:56 AM 61.0 °F 15.1 °F 17% 29.75 in 10.0 mi ESE 9.2 mph - N/A   Clear
7:56 AM 72.0 °F 16.0 °F 12% 29.74 in 10.0 mi ESE 10.4 mph - N/A   Clear
8:56 AM 84.0 °F 12.9 °F 7% 29.71 in 10.0 mi South 16.1 mph 24.2 mph N/A   Clear
9:56 AM 87.1 °F 10.9 °F 6% 29.70 in 10.0 mi South 13.8 mph 25.3 mph N/A   Clear
10:56 AM 90.0 °F 8.1 °F 5% 29.70 in 10.0 mi South 19.6 mph 28.8 mph N/A   Clear
11:56 AM 91.0 °F 7.0 °F 4% 29.70 in 10.0 mi SSW 17.3 mph 28.8 mph N/A   Clear
12:56 PM 93.0 °F 8.1 °F 4% 29.68 in 10.0 mi SSW 19.6 mph 31.1 mph N/A   Clear
1:56 PM 93.9 °F 7.0 °F 4% 29.68 in 10.0 mi SSW 20.7 mph 31.1 mph N/A   Clear
2:56 PM 93.9 °F -2.0 °F 4% 29.67 in 10.0 mi WSW 20.7 mph 29.9 mph N/A   Clear
3:56 PM 93.0 °F -0.9 °F 4% 29.68 in 10.0 mi SW 20.7 mph 33.4 mph N/A   Clear
4:56 PM 91.0 °F 3.0 °F 4% 29.68 in 10.0 mi SSW 19.6 mph 28.8 mph N/A   Clear
5:56 PM 90.0 °F 6.1 °F 4% 29.69 in 10.0 mi SSW 15.0 mph 32.2 mph N/A   Clear
6:56 PM 86.0 °F 9.0 °F 5% 29.69 in 10.0 mi SSW 17.3 mph - N/A   Clear
7:56 PM 80.1 °F 10.9 °F 7% 29.70 in 10.0 mi SSW 11.5 mph - N/A   Clear
8:56 PM 73.0 °F 12.0 °F 10% 29.70 in 10.0 mi SSW 6.9 mph - N/A   Clear
9:56 PM 70.0 °F 14.0 °F 12% 29.72 in 10.0 mi South 5.8 mph - N/A   Clear
10:56 PM 62.1 °F 10.9 °F 13% 29.74 in 10.0 mi Calm Calm - N/A   Clear
11:56 PM 61.0 °F 10.9 °F 14% 29.74 in 10.0 mi Calm Calm - N/A   Clear